Location: Castellare
(42.4669°N, 9.4728°E)
Time: 19:19:21
(UTC+00:00)

CZ-2C R/B - Pass Details

Date: 17 February 2020
Orbit: 667 x 785 km, 98.1° (Epoch: 05 April)

Event Time Altitude Azimuth Distance (km) Brightness Sun altitude
Rises 04:40:39 0° 2° (N) 3,286 5.8 -18.4°
Reaches altitude 10° 04:43:17 10° 350° (N) 2,349 4.9 -17.9°
Maximum altitude 04:47:35 27° 295° (WNW) 1,460 3.4 -17.1°
Enters shadow 04:47:46 27° 291° (WNW) 1,461 3.4 -17.1°
